^^
Station Historical Data
Daily Summary for February 17, 2019 Units:  English    Metric   Both
« Previous Day
Next Day »
Daily Weekly Monthly Yearly Custom
  High: Low: Average:
Temperature: 10.4 °F -3.0 °F 5.8 °F
Dew Point: 5.2 °F -6.4 °F 2 °F
Humidity: 87% 78% 84%
Wind Speed: 16.0mph 1.0mph 7.9mph
Wind Gust: 17.0mph - -
Wind- - WSW
Pressure: 30.47 in 30.07 in -
Precipitation: 0.00 in    
Historical Graphs
 
 
Tabular Data for February 17, 2019
Time Temperature Dew Point Pressure Wind Wind Speed Wind Gust Humidity Rainfall Rate (Hourly) solar Conditions
00:04 5.5 °F 2.2 °F 30.07 in ENE 8.0 mph 17.0 mph 86% 0.00 in 0.00 W/m2
00:09 5.5 °F 2.2 °F 30.07 in East 9.0 mph 17.0 mph 86% 0.00 in 0.00 W/m2
00:14 5.5 °F 2.5 °F 30.07 in ENE 10.0 mph 13.0 mph 87% 0.00 in 0.00 W/m2
00:19 5.5 °F 2.5 °F 30.07 in NNE 8.0 mph 12.0 mph 87% 0.00 in 0.00 W/m2
00:24 5.5 °F 2.5 °F 30.07 in ENE 10.0 mph 16.0 mph 87% 0.00 in 0.00 W/m2
00:29 5.5 °F 2.5 °F 30.07 in ENE 11.0 mph 17.0 mph 87% 0.00 in 0.00 W/m2
00:34 5.6 °F 2.6 °F 30.07 in ENE 12.0 mph 17.0 mph 87% 0.00 in 0.00 W/m2
00:39 5.6 °F 2.6 °F 30.07 in ENE 12.0 mph 16.0 mph 87% 0.00 in 0.00 W/m2
00:44 5.6 °F 2.6 °F 30.08 in East 14.0 mph 16.0 mph 87% 0.00 in 0.00 W/m2
00:49 5.7 °F 2.7 °F 30.08 in East 13.0 mph 16.0 mph 87% 0.00 in 0.00 W/m2
00:54 5.8 °F 2.8 °F 30.07 in East 13.0 mph 16.0 mph 87% 0.00 in 0.00 W/m2
00:59 5.8 °F 2.8 °F 30.08 in East 13.0 mph 16.0 mph 87% 0.00 in 0.00 W/m2
01:04 5.8 °F 2.8 °F 30.08 in ENE 16.0 mph 16.0 mph 87% 0.00 in 0.00 W/m2
01:09 5.9 °F 2.9 °F 30.08 in ENE 9.0 mph 16.0 mph 87% 0.00 in 0.00 W/m2
01:14 5.9 °F 2.9 °F 30.08 in ENE 9.0 mph 16.0 mph 87% 0.00 in 0.00 W/m2
01:19 6.0 °F 3.0 °F 30.08 in ENE 14.0 mph 16.0 mph 87% 0.00 in 0.00 W/m2
01:24 6.0 °F 3.0 °F 30.08 in ENE 11.0 mph 16.0 mph 87% 0.00 in 0.00 W/m2
01:29 6.1 °F 3.1 °F 30.08 in ENE 12.0 mph 15.0 mph 87% 0.00 in 0.00 W/m2
01:34 6.1 °F 3.1 °F 30.08 in ENE 10.0 mph 15.0 mph 87% 0.00 in 0.00 W/m2
01:39 6.2 °F 3.2 °F 30.08 in East 10.0 mph 14.0 mph 87% 0.00 in 0.00 W/m2
01:44 6.2 °F 3.2 °F 30.08 in ENE 13.0 mph 15.0 mph 87% 0.00 in 0.00 W/m2
01:49 6.2 °F 3.2 °F 30.08 in ENE 13.0 mph 17.0 mph 87% 0.00 in 0.00 W/m2
01:54 6.2 °F 3.2 °F 30.08 in ENE 8.0 mph 17.0 mph 87% 0.00 in 0.00 W/m2
01:59 6.3 °F 3.3 °F 30.08 in East 11.0 mph 17.0 mph 87% 0.00 in 0.00 W/m2
02:04 6.3 °F 3.3 °F 30.08 in ENE 10.0 mph 17.0 mph 87% 0.00 in 0.00 W/m2
02:09 6.4 °F 3.4 °F 30.08 in ENE 13.0 mph 15.0 mph 87% 0.00 in 0.00 W/m2
02:14 6.5 °F 3.5 °F 30.08 in East 13.0 mph 17.0 mph 87% 0.00 in 0.00 W/m2
02:19 6.6 °F 3.6 °F 30.08 in ENE 8.0 mph 17.0 mph 87% 0.00 in 0.00 W/m2
02:24 6.6 °F 3.6 °F 30.08 in East 10.0 mph 15.0 mph 87% 0.00 in 0.00 W/m2
02:29 6.7 °F 3.7 °F 30.08 in ENE 11.0 mph 15.0 mph 87% 0.00 in 0.00 W/m2
02:34 6.8 °F 3.8 °F 30.08 in ENE 13.0 mph 14.0 mph 87% 0.00 in 0.00 W/m2
02:39 6.9 °F 3.8 °F 30.08 in ENE 7.0 mph 15.0 mph 87% 0.00 in 0.00 W/m2
02:44 7.0 °F 3.9 °F 30.08 in ENE 9.0 mph 15.0 mph 87% 0.00 in 0.00 W/m2
02:49 7.1 °F 4.0 °F 30.08 in ENE 5.0 mph 12.0 mph 87% 0.00 in 0.00 W/m2
02:54 7.1 °F 4.0 °F 30.08 in NE 7.0 mph 12.0 mph 87% 0.00 in 0.00 W/m2
02:59 7.1 °F 4.0 °F 30.08 in ENE 7.0 mph 10.0 mph 87% 0.00 in 0.00 W/m2
03:04 7.2 °F 4.1 °F 30.08 in NE 5.0 mph 10.0 mph 87% 0.00 in 0.00 W/m2
03:09 7.2 °F 4.1 °F 30.08 in NE 5.0 mph 9.0 mph 87% 0.00 in 0.00 W/m2
03:14 7.3 °F 4.2 °F 30.09 in NE 7.0 mph 9.0 mph 87% 0.00 in 0.00 W/m2
03:19 7.2 °F 3.9 °F 30.09 in NE 5.0 mph 9.0 mph 86% 0.00 in 0.00 W/m2
03:24 7.2 °F 3.9 °F 30.09 in NE 6.0 mph 10.0 mph 86% 0.00 in 0.00 W/m2
03:29 7.2 °F 3.9 °F 30.09 in NE 6.0 mph 10.0 mph 86% 0.00 in 0.00 W/m2
03:34 7.2 °F 3.9 °F 30.09 in NE 6.0 mph 10.0 mph 86% 0.00 in 0.00 W/m2
03:39 7.2 °F 3.9 °F 30.09 in NE 6.0 mph 8.0 mph 86% 0.00 in 0.00 W/m2
03:44 7.2 °F 3.9 °F 30.09 in NNE 7.0 mph 8.0 mph 86% 0.00 in 0.00 W/m2
03:49 7.2 °F 3.9 °F 30.09 in NE 6.0 mph 8.0 mph 86% 0.00 in 0.00 W/m2
03:54 7.2 °F 3.9 °F 30.10 in NE 8.0 mph 9.0 mph 86% 0.00 in 0.00 W/m2
03:59 7.2 °F 3.9 °F 30.09 in NE 9.0 mph 10.0 mph 86% 0.00 in 0.00 W/m2
04:04 7.2 °F 3.9 °F 30.09 in NE 8.0 mph 11.0 mph 86% 0.00 in 0.00 W/m2
04:09 7.2 °F 3.9 °F 30.10 in ENE 9.0 mph 12.0 mph 86% 0.00 in 0.00 W/m2
04:14 7.2 °F 3.9 °F 30.10 in ENE 11.0 mph 12.0 mph 86% 0.00 in 0.00 W/m2
04:19 7.3 °F 4.0 °F 30.10 in NE 8.0 mph 12.0 mph 86% 0.00 in 0.00 W/m2
04:24 7.3 °F 4.0 °F 30.10 in ENE 12.0 mph 12.0 mph 86% 0.00 in 0.00 W/m2
04:29 7.3 °F 4.0 °F 30.10 in NE 8.0 mph 12.0 mph 86% 0.00 in 0.00 W/m2
04:34 7.3 °F 4.0 °F 30.10 in NE 10.0 mph 13.0 mph 86% 0.00 in 0.00 W/m2
04:39 7.3 °F 4.0 °F 30.11 in NE 9.0 mph 13.0 mph 86% 0.00 in 0.00 W/m2
04:44 7.3 °F 4.0 °F 30.11 in NE 6.0 mph 13.0 mph 86% 0.00 in 0.00 W/m2
04:49 7.3 °F 4.0 °F 30.11 in NE 9.0 mph 12.0 mph 86% 0.00 in 0.00 W/m2
04:54 7.3 °F 4.0 °F 30.11 in NE 8.0 mph 11.0 mph 86% 0.00 in 0.00 W/m2
04:59 7.3 °F 4.0 °F 30.11 in NNE 6.0 mph 10.0 mph 86% 0.00 in 0.00 W/m2
05:04 7.3 °F 4.0 °F 30.11 in North 6.0 mph 9.0 mph 86% 0.00 in 0.00 W/m2
05:09 7.3 °F 4.0 °F 30.12 in NNE 5.0 mph 9.0 mph 86% 0.00 in 0.00 W/m2
05:14 7.2 °F 3.9 °F 30.12 in NNE 6.0 mph 9.0 mph 86% 0.00 in 0.00 W/m2
05:19 7.2 °F 3.9 °F 30.12 in NE 6.0 mph 10.0 mph 86% 0.00 in 0.00 W/m2
05:24 7.2 °F 3.9 °F 30.13 in NNE 5.0 mph 10.0 mph 86% 0.00 in 0.00 W/m2
05:29 7.1 °F 3.8 °F 30.13 in North 6.0 mph 9.0 mph 86% 0.00 in 0.00 W/m2
05:34 7.1 °F 3.8 °F 30.13 in North 7.0 mph 8.0 mph 86% 0.00 in 0.00 W/m2
05:39 7.0 °F 3.7 °F 30.13 in North 5.0 mph 9.0 mph 86% 0.00 in 0.00 W/m2
05:44 6.9 °F 3.6 °F 30.14 in North 6.0 mph 9.0 mph 86% 0.00 in 0.00 W/m2
05:49 6.9 °F 3.6 °F 30.14 in North 5.0 mph 9.0 mph 86% 0.00 in 0.00 W/m2
05:54 6.8 °F 3.5 °F 30.14 in North 8.0 mph 9.0 mph 86% 0.00 in 0.00 W/m2
05:59 6.8 °F 3.5 °F 30.14 in North 7.0 mph 10.0 mph 86% 0.00 in 0.00 W/m2
06:04 6.7 °F 3.4 °F 30.14 in North 6.0 mph 10.0 mph 86% 0.00 in 0.00 W/m2
06:09 6.6 °F 3.3 °F 30.14 in North 8.0 mph 10.0 mph 86% 0.00 in 0.00 W/m2
06:14 6.5 °F 3.2 °F 30.15 in North 7.0 mph 11.0 mph 86% 0.00 in 0.00 W/m2
06:19 6.5 °F 3.2 °F 30.15 in North 5.0 mph 11.0 mph 86% 0.00 in 0.00 W/m2
06:24 6.4 °F 3.1 °F 30.15 in North 7.0 mph 10.0 mph 86% 0.00 in 0.00 W/m2
06:29 6.4 °F 3.1 °F 30.15 in NNW 9.0 mph 9.0 mph 86% 0.00 in 0.00 W/m2
06:34 6.4 °F 3.1 °F 30.15 in North 7.0 mph 9.0 mph 86% 0.00 in 0.00 W/m2
06:39 6.3 °F 3.0 °F 30.15 in NNW 5.0 mph 9.0 mph 86% 0.00 in 0.00 W/m2
06:44 6.3 °F 3.0 °F 30.15 in NNW 8.0 mph 9.0 mph 86% 0.00 in 0.00 W/m2
06:49 6.2 °F 2.9 °F 30.15 in NNW 8.0 mph 9.0 mph 86% 0.00 in 0.00 W/m2
06:54 6.1 °F 2.8 °F 30.16 in North 6.0 mph 10.0 mph 86% 0.00 in 0.00 W/m2
06:59 6.0 °F 2.7 °F 30.16 in North 6.0 mph 10.0 mph 86% 0.00 in 0.00 W/m2
07:04 6.0 °F 2.7 °F 30.16 in NNW 8.0 mph 10.0 mph 86% 0.00 in 0.00 W/m2
07:09 5.9 °F 2.6 °F 30.16 in NNE 8.0 mph 9.0 mph 86% 0.00 in 0.00 W/m2
07:14 5.8 °F 2.5 °F 30.16 in North 6.0 mph 9.0 mph 86% 0.00 in 0.00 W/m2
07:19 5.7 °F 2.4 °F 30.16 in North 6.0 mph 9.0 mph 86% 0.00 in 0.00 W/m2
07:24 5.6 °F 2.3 °F 30.17 in NNW 4.0 mph 9.0 mph 86% 0.00 in 0.00 W/m2
07:29 5.6 °F 2.3 °F 30.17 in NNW 7.0 mph 7.0 mph 86% 0.00 in 0.00 W/m2
07:34 5.5 °F 2.2 °F 30.17 in North 5.0 mph 8.0 mph 86% 0.00 in 0.00 W/m2
07:39 5.4 °F 2.1 °F 30.18 in NNW 7.0 mph 8.0 mph 86% 0.00 in 0.00 W/m2
07:44 5.5 °F 2.2 °F 30.18 in NNW 6.0 mph 9.0 mph 86% 0.00 in 0.00 W/m2
07:49 5.4 °F 2.1 °F 30.18 in NNW 7.0 mph 9.0 mph 86% 0.00 in 5.00 W/m2
07:54 5.4 °F 2.1 °F 30.18 in NNW 8.0 mph 9.0 mph 86% 0.00 in 9.00 W/m2
07:59 5.4 °F 2.1 °F 30.18 in NNW 7.0 mph 10.0 mph 86% 0.00 in 12.00 W/m2
08:04 5.3 °F 2.0 °F 30.19 in North 7.0 mph 10.0 mph 86% 0.00 in 16.00 W/m2
08:09 5.4 °F 2.1 °F 30.19 in NNW 7.0 mph 9.0 mph 86% 0.00 in 23.00 W/m2
08:14 5.4 °F 2.1 °F 30.19 in NNW 6.0 mph 8.0 mph 86% 0.00 in 30.00 W/m2
08:19 5.5 °F 2.2 °F 30.20 in North 7.0 mph 8.0 mph 86% 0.00 in 39.00 W/m2
08:24 5.5 °F 2.2 °F 30.20 in NNW 5.0 mph 8.0 mph 86% 0.00 in 46.00 W/m2
08:29 5.4 °F 2.1 °F 30.20 in NNW 4.0 mph 8.0 mph 86% 0.00 in 53.00 W/m2
08:34 5.4 °F 2.1 °F 30.20 in NNW 4.0 mph 7.0 mph 86% 0.00 in 62.00 W/m2
08:39 5.5 °F 2.2 °F 30.20 in NNW 6.0 mph 7.0 mph 86% 0.00 in 70.00 W/m2
08:44 5.5 °F 2.2 °F 30.20 in NNW 6.0 mph 7.0 mph 86% 0.00 in 81.00 W/m2
08:49 5.7 °F 2.4 °F 30.21 in North 6.0 mph 8.0 mph 86% 0.00 in 91.00 W/m2
08:54 5.9 °F 2.6 °F 30.21 in North 7.0 mph 9.0 mph 86% 0.00 in 98.00 W/m2
08:59 6.1 °F 2.8 °F 30.21 in NNW 9.0 mph 10.0 mph 86% 0.00 in 109.00 W/m2
09:04 6.3 °F 3.0 °F 30.21 in NNW 7.0 mph 10.0 mph 86% 0.00 in 113.00 W/m2
09:09 6.4 °F 2.9 °F 30.21 in North 7.0 mph 10.0 mph 85% 0.00 in 118.00 W/m2
09:14 6.5 °F 3.0 °F 30.22 in NNW 8.0 mph 10.0 mph 85% 0.00 in 123.00 W/m2
09:19 6.6 °F 3.0 °F 30.22 in NNW 5.0 mph 10.0 mph 85% 0.00 in 128.00 W/m2
09:24 6.4 °F 2.9 °F 30.22 in NNW 7.0 mph 10.0 mph 85% 0.00 in 135.00 W/m2
09:29 6.3 °F 2.8 °F 30.22 in NNW 8.0 mph 10.0 mph 85% 0.00 in 144.00 W/m2
09:34 6.2 °F 2.7 °F 30.22 in NNW 9.0 mph 11.0 mph 85% 0.00 in 149.00 W/m2
09:39 6.2 °F 2.7 °F 30.21 in NNW 9.0 mph 11.0 mph 85% 0.00 in 155.00 W/m2
09:44 6.1 °F 2.6 °F 30.22 in NW 8.0 mph 11.0 mph 85% 0.00 in 163.00 W/m2
09:49 6.2 °F 2.7 °F 30.22 in NNW 9.0 mph 11.0 mph 85% 0.00 in 171.00 W/m2
09:54 6.4 °F 2.9 °F 30.22 in NNW 8.0 mph 10.0 mph 85% 0.00 in 178.00 W/m2
09:59 6.4 °F 2.9 °F 30.22 in NNW 6.0 mph 10.0 mph 85% 0.00 in 188.00 W/m2
10:04 6.5 °F 3.0 °F 30.23 in NW 8.0 mph 10.0 mph 85% 0.00 in 195.00 W/m2
10:09 6.5 °F 3.0 °F 30.23 in NNW 8.0 mph 11.0 mph 85% 0.00 in 206.00 W/m2
10:14 6.6 °F 3.0 °F 30.23 in North 9.0 mph 13.0 mph 85% 0.00 in 216.00 W/m2
10:19 7.0 °F 3.4 °F 30.23 in North 8.0 mph 13.0 mph 85% 0.00 in 221.00 W/m2
10:24 7.1 °F 3.5 °F 30.23 in NNW 12.0 mph 13.0 mph 85% 0.00 in 223.00 W/m2
10:29 6.7 °F 2.9 °F 30.23 in NNW 9.0 mph 15.0 mph 84% 0.00 in 225.00 W/m2
10:34 6.6 °F 2.8 °F 30.23 in North 11.0 mph 15.0 mph 84% 0.00 in 227.00 W/m2
10:39 6.8 °F 3.0 °F 30.23 in North 14.0 mph 14.0 mph 84% 0.00 in 227.00 W/m2
10:44 6.8 °F 3.0 °F 30.24 in North 12.0 mph 15.0 mph 84% 0.00 in 234.00 W/m2
10:49 6.8 °F 3.0 °F 30.24 in North 9.0 mph 15.0 mph 84% 0.00 in 244.00 W/m2
10:54 6.8 °F 3.0 °F 30.24 in NNW 14.0 mph 15.0 mph 84% 0.00 in 255.00 W/m2
10:59 6.4 °F 2.3 °F 30.24 in NNW 14.0 mph 15.0 mph 83% 0.00 in 271.00 W/m2
11:04 6.3 °F 2.2 °F 30.24 in NNW 13.0 mph 15.0 mph 83% 0.00 in 287.00 W/m2
11:09 6.3 °F 2.5 °F 30.25 in NW 14.0 mph 15.0 mph 84% 0.00 in 302.00 W/m2
11:14 6.3 °F 2.5 °F 30.24 in NNW 9.0 mph 15.0 mph 84% 0.00 in 316.00 W/m2
11:19 6.4 °F 2.6 °F 30.25 in NNW 11.0 mph 14.0 mph 84% 0.00 in 332.00 W/m2
11:24 6.3 °F 2.2 °F 30.25 in NW 9.0 mph 16.0 mph 83% 0.00 in 341.00 W/m2
11:29 6.3 °F 2.2 °F 30.25 in NNW 13.0 mph 16.0 mph 83% 0.00 in 362.00 W/m2
11:34 6.3 °F 2.2 °F 30.25 in NNW 12.0 mph 15.0 mph 83% 0.00 in 374.00 W/m2
11:39 6.7 °F 2.9 °F 30.24 in NNW 12.0 mph 16.0 mph 84% 0.00 in 380.00 W/m2
11:44 6.8 °F 2.7 °F 30.25 in NNW 12.0 mph 16.0 mph 83% 0.00 in 388.00 W/m2
11:49 6.6 °F 2.5 °F 30.25 in NNW 11.0 mph 16.0 mph 83% 0.00 in 401.00 W/m2
11:54 6.8 °F 2.7 °F 30.25 in NNW 15.0 mph 15.0 mph 83% 0.00 in 408.00 W/m2
11:59 6.6 °F 2.5 °F 30.25 in NNW 12.0 mph 17.0 mph 83% 0.00 in 418.00 W/m2
12:04 6.7 °F 2.6 °F 30.25 in North 8.0 mph 17.0 mph 83% 0.00 in 425.00 W/m2
12:09 7.2 °F 3.1 °F 30.25 in NNW 9.0 mph 15.0 mph 83% 0.00 in 436.00 W/m2
12:14 7.4 °F 3.3 °F 30.25 in NNW 7.0 mph 14.0 mph 83% 0.00 in 452.00 W/m2
12:19 7.6 °F 3.3 °F 30.25 in NNW 11.0 mph 14.0 mph 82% 0.00 in 455.00 W/m2
12:24 8.0 °F 3.6 °F 30.25 in NNW 11.0 mph 14.0 mph 82% 0.00 in 492.00 W/m2
12:29 8.1 °F 3.7 °F 30.25 in NNW 11.0 mph 14.0 mph 82% 0.00 in 482.00 W/m2
12:34 8.0 °F 3.4 °F 30.25 in NNW 10.0 mph 14.0 mph 81% 0.00 in 475.00 W/m2
12:39 8.0 °F 3.4 °F 30.25 in NNW 10.0 mph 14.0 mph 81% 0.00 in 489.00 W/m2
12:44 8.3 °F 3.7 °F 30.25 in NW 9.0 mph 14.0 mph 81% 0.00 in 473.00 W/m2
12:49 8.3 °F 3.7 °F 30.25 in NNW 10.0 mph 14.0 mph 81% 0.00 in 469.00 W/m2
12:54 8.4 °F 3.8 °F 30.25 in NNW 7.0 mph 13.0 mph 81% 0.00 in 462.00 W/m2
12:59 8.6 °F 4.0 °F 30.25 in North 10.0 mph 13.0 mph 81% 0.00 in 452.00 W/m2
13:04 8.7 °F 4.1 °F 30.25 in NNW 10.0 mph 13.0 mph 81% 0.00 in 443.00 W/m2
13:09 8.4 °F 3.8 °F 30.25 in NNW 10.0 mph 13.0 mph 81% 0.00 in 431.00 W/m2
13:14 8.7 °F 4.1 °F 30.25 in North 11.0 mph 14.0 mph 81% 0.00 in 424.00 W/m2
13:19 9.0 °F 4.1 °F 30.25 in NNW 9.0 mph 15.0 mph 80% 0.00 in 424.00 W/m2
13:24 9.3 °F 4.6 °F 30.25 in NNW 10.0 mph 15.0 mph 81% 0.00 in 420.00 W/m2
13:29 9.7 °F 4.8 °F 30.25 in NNW 11.0 mph 17.0 mph 80% 0.00 in 422.00 W/m2
13:34 9.5 °F 4.3 °F 30.25 in North 14.0 mph 17.0 mph 79% 0.00 in 438.00 W/m2
13:39 9.8 °F 4.6 °F 30.26 in North 13.0 mph 15.0 mph 79% 0.00 in 443.00 W/m2
13:44 9.9 °F 4.7 °F 30.26 in North 12.0 mph 14.0 mph 79% 0.00 in 445.00 W/m2
13:49 10.0 °F 4.5 °F 30.26 in NNW 12.0 mph 14.0 mph 78% 0.00 in 441.00 W/m2
13:54 9.9 °F 4.7 °F 30.26 in North 10.0 mph 13.0 mph 79% 0.00 in 436.00 W/m2
13:59 10.4 °F 5.2 °F 30.26 in North 4.0 mph 13.0 mph 79% 0.00 in 424.00 W/m2
14:04 10.3 °F 4.8 °F 30.26 in NNW 10.0 mph 13.0 mph 78% 0.00 in 418.00 W/m2
14:09 9.9 °F 4.4 °F 30.26 in NNW 9.0 mph 13.0 mph 78% 0.00 in 418.00 W/m2
14:14 9.5 °F 4.0 °F 30.26 in NNW 14.0 mph 15.0 mph 78% 0.00 in 417.00 W/m2
14:19 9.3 °F 4.1 °F 30.26 in North 10.0 mph 15.0 mph 79% 0.00 in 411.00 W/m2
14:24 9.4 °F 4.2 °F 30.26 in NNW 10.0 mph 15.0 mph 79% 0.00 in 411.00 W/m2
14:29 9.7 °F 4.5 °F 30.27 in North 8.0 mph 15.0 mph 79% 0.00 in 404.00 W/m2
14:34 10.2 °F 5.0 °F 30.27 in NNW 12.0 mph 15.0 mph 79% 0.00 in 392.00 W/m2
14:39 10.3 °F 4.8 °F 30.27 in NNW 12.0 mph 14.0 mph 78% 0.00 in 381.00 W/m2
14:44 9.7 °F 4.2 °F 30.27 in North 9.0 mph 13.0 mph 78% 0.00 in 376.00 W/m2
14:49 9.4 °F 3.9 °F 30.27 in NNW 5.0 mph 13.0 mph 78% 0.00 in 369.00 W/m2
14:54 9.4 °F 4.2 °F 30.27 in NNW 11.0 mph 13.0 mph 79% 0.00 in 360.00 W/m2
14:59 9.8 °F 4.9 °F 30.27 in NNW 12.0 mph 13.0 mph 80% 0.00 in 360.00 W/m2
15:04 9.7 °F 4.5 °F 30.27 in NNW 10.0 mph 15.0 mph 79% 0.00 in 343.00 W/m2
15:09 9.7 °F 4.5 °F 30.27 in NNW 12.0 mph 15.0 mph 79% 0.00 in 322.00 W/m2
15:14 9.6 °F 4.1 °F 30.28 in NNW 10.0 mph 15.0 mph 78% 0.00 in 309.00 W/m2
15:19 9.6 °F 4.4 °F 30.28 in North 13.0 mph 15.0 mph 79% 0.00 in 308.00 W/m2
15:24 9.8 °F 4.6 °F 30.28 in North 11.0 mph 15.0 mph 79% 0.00 in 294.00 W/m2
15:29 9.9 °F 4.7 °F 30.28 in NNW 12.0 mph 13.0 mph 79% 0.00 in 283.00 W/m2
15:34 9.9 °F 4.4 °F 30.29 in NNW 9.0 mph 14.0 mph 78% 0.00 in 271.00 W/m2
15:39 9.6 °F 4.1 °F 30.29 in NNW 9.0 mph 14.0 mph 78% 0.00 in 260.00 W/m2
15:44 9.2 °F 4.0 °F 30.29 in NNW 10.0 mph 14.0 mph 79% 0.00 in 258.00 W/m2
15:49 9.1 °F 3.9 °F 30.29 in NNW 11.0 mph 14.0 mph 79% 0.00 in 250.00 W/m2
15:54 9.1 °F 3.9 °F 30.30 in NNW 11.0 mph 14.0 mph 79% 0.00 in 239.00 W/m2
15:59 9.0 °F 3.8 °F 30.30 in NNW 11.0 mph 14.0 mph 79% 0.00 in 232.00 W/m2
16:04 9.1 °F 4.2 °F 30.30 in NNW 7.0 mph 12.0 mph 80% 0.00 in 223.00 W/m2
16:09 9.2 °F 4.3 °F 30.30 in NNW 8.0 mph 12.0 mph 80% 0.00 in 211.00 W/m2
16:14 9.2 °F 4.3 °F 30.30 in North 8.0 mph 11.0 mph 80% 0.00 in 202.00 W/m2
16:19 9.3 °F 4.4 °F 30.31 in North 10.0 mph 12.0 mph 80% 0.00 in 195.00 W/m2
16:24 9.4 °F 4.2 °F 30.31 in North 8.0 mph 13.0 mph 79% 0.00 in 186.00 W/m2
16:29 9.4 °F 4.2 °F 30.31 in North 10.0 mph 13.0 mph 79% 0.00 in 179.00 W/m2
16:34 9.4 °F 4.2 °F 30.31 in NNW 9.0 mph 14.0 mph 79% 0.00 in 167.00 W/m2
16:39 9.3 °F 4.1 °F 30.31 in NNE 8.0 mph 14.0 mph 79% 0.00 in 155.00 W/m2
16:44 9.2 °F 4.3 °F 30.31 in North 9.0 mph 13.0 mph 80% 0.00 in 141.00 W/m2
16:49 9.2 °F 4.0 °F 30.32 in North 8.0 mph 13.0 mph 79% 0.00 in 128.00 W/m2
16:54 9.0 °F 3.8 °F 30.32 in NNW 8.0 mph 13.0 mph 79% 0.00 in 118.00 W/m2
16:59 8.8 °F 3.9 °F 30.32 in North 9.0 mph 14.0 mph 80% 0.00 in 104.00 W/m2
17:04 8.6 °F 3.4 °F 30.32 in North 13.0 mph 15.0 mph 79% 0.00 in 88.00 W/m2
17:09 8.3 °F 3.4 °F 30.32 in NNW 8.0 mph 15.0 mph 80% 0.00 in 72.00 W/m2
17:14 8.0 °F 3.1 °F 30.32 in NNW 10.0 mph 14.0 mph 80% 0.00 in 65.00 W/m2
17:19 7.6 °F 2.7 °F 30.32 in North 6.0 mph 12.0 mph 80% 0.00 in 60.00 W/m2
17:24 7.1 °F 2.2 °F 30.33 in NNW 5.0 mph 12.0 mph 80% 0.00 in 56.00 W/m2
17:29 6.7 °F 1.8 °F 30.33 in NNW 8.0 mph 11.0 mph 80% 0.00 in 51.00 W/m2
17:34 6.4 °F 1.8 °F 30.33 in NNW 8.0 mph 10.0 mph 81% 0.00 in 44.00 W/m2
17:39 6.2 °F 1.6 °F 30.33 in NW 5.0 mph 10.0 mph 81% 0.00 in 37.00 W/m2
17:44 5.8 °F 1.2 °F 30.34 in NNW 7.0 mph 9.0 mph 81% 0.00 in 30.00 W/m2
17:49 5.6 °F 1.3 °F 30.34 in NNW 6.0 mph 9.0 mph 82% 0.00 in 23.00 W/m2
17:54 5.4 °F 1.1 °F 30.34 in NNW 6.0 mph 10.0 mph 82% 0.00 in 18.00 W/m2
17:59 5.3 °F 1.0 °F 30.34 in NNW 7.0 mph 10.0 mph 82% 0.00 in 12.00 W/m2
18:04 5.5 °F 1.5 °F 30.34 in NNW 8.0 mph 11.0 mph 83% 0.00 in 7.00 W/m2
18:09 5.5 °F 1.5 °F 30.35 in NW 6.0 mph 11.0 mph 83% 0.00 in 5.00 W/m2
18:14 5.5 °F 1.5 °F 30.35 in NW 5.0 mph 9.0 mph 83% 0.00 in 0.00 W/m2
18:19 5.2 °F 1.2 °F 30.36 in NW 4.0 mph 9.0 mph 83% 0.00 in 0.00 W/m2
18:24 4.7 °F 0.7 °F 30.36 in WNW 7.0 mph 8.0 mph 83% 0.00 in 0.00 W/m2
18:29 4.5 °F 0.7 °F 30.36 in NW 6.0 mph 9.0 mph 84% 0.00 in 0.00 W/m2
18:34 4.7 °F 0.9 °F 30.37 in NW 7.0 mph 10.0 mph 84% 0.00 in 0.00 W/m2
18:39 4.6 °F 0.8 °F 30.37 in NW 7.0 mph 10.0 mph 84% 0.00 in 0.00 W/m2
18:44 4.4 °F 0.6 °F 30.37 in NW 7.0 mph 10.0 mph 84% 0.00 in 0.00 W/m2
18:49 3.9 °F 0.1 °F 30.37 in NNW 8.0 mph 10.0 mph 84% 0.00 in 0.00 W/m2
18:54 3.7 °F -0.1 °F 30.37 in NNW 7.0 mph 11.0 mph 84% 0.00 in 0.00 W/m2
18:59 3.5 °F -0.2 °F 30.38 in NNW 8.0 mph 11.0 mph 84% 0.00 in 0.00 W/m2
19:04 3.1 °F -0.6 °F 30.38 in NNW 6.0 mph 10.0 mph 84% 0.00 in 0.00 W/m2
19:09 2.7 °F -1.0 °F 30.38 in NNW 6.0 mph 9.0 mph 84% 0.00 in 0.00 W/m2
19:14 2.5 °F -1.0 °F 30.38 in NNW 7.0 mph 9.0 mph 85% 0.00 in 0.00 W/m2
19:19 2.4 °F -1.1 °F 30.38 in NNW 4.0 mph 8.0 mph 85% 0.00 in 0.00 W/m2
19:24 2.4 °F -1.1 °F 30.39 in NW 4.0 mph 8.0 mph 85% 0.00 in 0.00 W/m2
19:29 2.6 °F -0.9 °F 30.39 in NW 5.0 mph 7.0 mph 85% 0.00 in 0.00 W/m2
19:34 2.5 °F -1.0 °F 30.39 in NW 6.0 mph 6.0 mph 85% 0.00 in 0.00 W/m2
19:39 2.1 °F -1.4 °F 30.39 in NW 4.0 mph 7.0 mph 85% 0.00 in 0.00 W/m2
19:44 1.7 °F -1.8 °F 30.39 in NW 4.0 mph 7.0 mph 85% 0.00 in 0.00 W/m2
19:49 1.5 °F -2.0 °F 30.39 in NW 5.0 mph 5.0 mph 85% 0.00 in 0.00 W/m2
19:54 1.4 °F -2.1 °F 30.39 in NW 5.0 mph 5.0 mph 85% 0.00 in 0.00 W/m2
19:59 1.7 °F -1.5 °F 30.39 in NW 5.0 mph 5.0 mph 86% 0.00 in 0.00 W/m2
20:04 1.9 °F -1.3 °F 30.39 in NNW 6.0 mph 7.0 mph 86% 0.00 in 0.00 W/m2
20:09 2.2 °F -1.0 °F 30.40 in NW 3.0 mph 8.0 mph 86% 0.00 in 0.00 W/m2
20:14 2.1 °F -1.4 °F 30.40 in NW 4.0 mph 8.0 mph 85% 0.00 in 0.00 W/m2
20:19 1.8 °F -1.7 °F 30.40 in NW 3.0 mph 6.0 mph 85% 0.00 in 0.00 W/m2
20:24 2.0 °F -1.2 °F 30.41 in NW 4.0 mph 6.0 mph 86% 0.00 in 0.00 W/m2
20:29 2.3 °F -0.9 °F 30.41 in NW 6.0 mph 7.0 mph 86% 0.00 in 0.00 W/m2
20:34 2.4 °F -0.8 °F 30.41 in NW 6.0 mph 7.0 mph 86% 0.00 in 0.00 W/m2
20:39 2.4 °F -0.8 °F 30.41 in NW 7.0 mph 9.0 mph 86% 0.00 in 0.00 W/m2
20:44 2.1 °F -1.4 °F 30.41 in NNW 6.0 mph 9.0 mph 85% 0.00 in 0.00 W/m2
20:49 1.9 °F -1.6 °F 30.41 in NW 4.0 mph 9.0 mph 85% 0.00 in 0.00 W/m2
20:54 1.6 °F -1.9 °F 30.42 in NW 6.0 mph 9.0 mph 85% 0.00 in 0.00 W/m2
20:59 1.5 °F -2.0 °F 30.42 in NW 5.0 mph 7.0 mph 85% 0.00 in 0.00 W/m2
21:04 1.8 °F -1.4 °F 30.42 in NW 5.0 mph 7.0 mph 86% 0.00 in 0.00 W/m2
21:09 1.8 °F -1.4 °F 30.42 in NW 7.0 mph 7.0 mph 86% 0.00 in 0.00 W/m2
21:14 1.9 °F -1.3 °F 30.42 in WNW 5.0 mph 9.0 mph 86% 0.00 in 0.00 W/m2
21:19 1.5 °F -2.0 °F 30.42 in WNW 5.0 mph 9.0 mph 85% 0.00 in 0.00 W/m2
21:24 1.3 °F -2.2 °F 30.43 in NW 6.0 mph 7.0 mph 85% 0.00 in 0.00 W/m2
21:29 1.3 °F -2.2 °F 30.43 in WNW 8.0 mph 8.0 mph 85% 0.00 in 0.00 W/m2
21:34 1.4 °F -1.8 °F 30.43 in NW 10.0 mph 10.0 mph 86% 0.00 in 0.00 W/m2
21:39 1.5 °F -1.7 °F 30.43 in NNW 9.0 mph 10.0 mph 86% 0.00 in 0.00 W/m2
21:44 1.4 °F -2.1 °F 30.43 in NNW 6.0 mph 10.0 mph 85% 0.00 in 0.00 W/m2
21:49 1.3 °F -2.2 °F 30.43 in NNW 6.0 mph 10.0 mph 85% 0.00 in 0.00 W/m2
21:54 1.1 °F -2.4 °F 30.43 in NW 4.0 mph 9.0 mph 85% 0.00 in 0.00 W/m2
21:59 0.9 °F -2.6 °F 30.43 in NNW 6.0 mph 9.0 mph 85% 0.00 in 0.00 W/m2
22:04 1.3 °F -1.9 °F 30.44 in NNW 7.0 mph 9.0 mph 86% 0.00 in 0.00 W/m2
22:09 1.5 °F -1.7 °F 30.44 in NNW 6.0 mph 9.0 mph 86% 0.00 in 0.00 W/m2
22:14 1.6 °F -1.6 °F 30.43 in NNW 9.0 mph 10.0 mph 86% 0.00 in 0.00 W/m2
22:19 1.7 °F -1.5 °F 30.44 in NNW 8.0 mph 10.0 mph 86% 0.00 in 0.00 W/m2
22:24 1.6 °F -1.9 °F 30.44 in NNW 6.0 mph 10.0 mph 85% 0.00 in 0.00 W/m2
22:29 1.4 °F -2.1 °F 30.44 in NNW 5.0 mph 8.0 mph 85% 0.00 in 0.00 W/m2
22:34 1.3 °F -2.2 °F 30.44 in WNW 5.0 mph 6.0 mph 85% 0.00 in 0.00 W/m2
22:39 1.2 °F -2.3 °F 30.44 in NNW 5.0 mph 7.0 mph 85% 0.00 in 0.00 W/m2
22:44 1.0 °F -2.5 °F 30.45 in NW 4.0 mph 7.0 mph 85% 0.00 in 0.00 W/m2
22:49 0.8 °F -2.7 °F 30.45 in WNW 3.0 mph 6.0 mph 85% 0.00 in 0.00 W/m2
22:54 0.0 °F -3.7 °F 30.45 in WNW 3.0 mph 5.0 mph 84% 0.00 in 0.00 W/m2
22:59 -0.6 °F -4.3 °F 30.45 in WNW 3.0 mph 4.0 mph 84% 0.00 in 0.00 W/m2
23:04 -0.9 °F -4.6 °F 30.45 in WNW 1.0 mph 3.0 mph 84% 0.00 in 0.00 W/m2
23:09 -1.2 °F -4.9 °F 30.45 in WNW 2.0 mph 3.0 mph 84% 0.00 in 0.00 W/m2
23:14 -1.2 °F -4.6 °F 30.45 in WNW 3.0 mph 3.0 mph 85% 0.00 in 0.00 W/m2
23:19 -1.6 °F -5.0 °F 30.45 in West 2.0 mph 4.0 mph 85% 0.00 in 0.00 W/m2
23:24 -1.9 °F -5.3 °F 30.46 in West 2.0 mph 4.0 mph 85% 0.00 in 0.00 W/m2
23:29 -1.9 °F -5.3 °F 30.46 in West 2.0 mph 4.0 mph 85% 0.00 in 0.00 W/m2
23:34 -2.2 °F -5.6 °F 30.46 in West 3.0 mph 5.0 mph 85% 0.00 in 0.00 W/m2
23:39 -2.3 °F -5.7 °F 30.46 in West 1.0 mph 5.0 mph 85% 0.00 in 0.00 W/m2
23:44 -2.3 °F -5.7 °F 30.46 in West 3.0 mph 4.0 mph 85% 0.00 in 0.00 W/m2
23:49 -3.0 °F -6.4 °F 30.46 in West 4.0 mph 5.0 mph 85% 0.00 in 0.00 W/m2
23:54 -3.0 °F -6.4 °F 30.47 in WNW 3.0 mph 5.0 mph 85% 0.00 in 0.00 W/m2
23:59 -2.7 °F -5.9 °F 30.47 in WNW 4.0 mph 5.0 mph 86% 0.00 in 0.00 W/m2
Bismarck, North Dakota, USA
Compliments of Weather Underground - 4 mb